| time (UTC) | temp F | wind direction | speed MPH | gust MPH | rain 1hr in | rain 24hr in | rain mn in | humidity % | barometer mb |
| 20260503204003 | 85 | 102 | 3.0 | 10.0 | 0.00 | 0.00 | 0.00 | 20 | |
| 20260503203003 | 85 | 116 | 3.0 | 12.0 | 0.00 | 0.00 | 0.00 | 18 | |
| 20260503202004 | 85 | 109 | 1.0 | 10.0 | 0.00 | 0.00 | 0.00 | 19 | |
| 20260503201002 | 84 | 264 | 3.0 | 10.0 | 0.00 | 0.00 | 0.00 | 23 | |
| 20260503200003 | 85 | 214 | 1.0 | 13.0 | 0.00 | 0.00 | 0.00 | 24 | |
| 20260503194003 | 84 | 51 | 3.0 | 7.0 | 0.00 | 0.00 | 0.00 | 24 | |
| 20260503193004 | 84 | 141 | 0.0 | 7.0 | 0.00 | 0.00 | 0.00 | 28 | |
| 20260503192003 | 83 | 92 | 2.0 | 10.0 | 0.00 | 0.00 | 0.00 | 27 | |
| 20260503191003 | 82 | 68 | 4.0 | 12.0 | 0.00 | 0.00 | 0.00 | 27 | |
| 20260503190004 | 81 | 68 | 4.0 | 11.0 | 0.00 | 0.00 | 0.00 | 27 | |
| 20260503185002 | 80 | 65 | 5.0 | 14.0 | 0.00 | 0.00 | 0.00 | 27 | |
| 20260503184003 | 81 | 110 | 2.0 | 9.0 | 0.00 | 0.00 | 0.00 | 27 | |
| 20260503183003 | 80 | 50 | 2.0 | 8.0 | 0.00 | 0.00 | 0.00 | 30 | |
| 20260503182003 | 80 | 159 | 1.0 | 10.0 | 0.00 | 0.00 | 0.00 | 33 | |
| 20260503181003 | 78 | 58 | 3.0 | 8.0 | 0.00 | 0.00 | 0.00 | 33 | |
| 20260503180004 | 77 | 111 | 2.0 | 9.0 | 0.00 | 0.00 | 0.00 | 35 | |
| 20260503175002 | 75 | 79 | 3.0 | 10.0 | 0.00 | 0.00 | 0.00 | 38 | |
| 20260503174003 | 75 | 59 | 3.0 | 8.0 | 0.00 | 0.00 | 0.00 | 38 | |
| 20260503173003 | 74 | 89 | 3.0 | 9.0 | 0.00 | 0.00 | 0.00 | 40 | |
| 20260503172003 | 73 | 55 | 3.0 | 10.0 | 0.00 | 0.00 | 0.00 | 43 | |
| 20260503171003 | 71 | 62 | 6.0 | 11.0 | 0.00 | 0.00 | 0.00 | 44 | |
| 20260503151003 | 66 | 126 | 1.0 | 3.0 | 0.00 | 0.00 | 0.00 | 60 | |
| 20260503131002 | 55 | 289 | 1.0 | 4.0 | 0.00 | 0.00 | 0.00 | 84 | |
| 20260503081002 | 55 | 257 | 2.0 | 4.0 | 0.00 | 0.00 | 0.00 | 96 | |
| 20260503072003 | 55 | 254 | 1.0 | 3.0 | 0.00 | 0.00 | 0.00 | 99 | |
| 20260503071002 | 55 | 268 | 1.0 | 2.0 | 0.00 | 0.00 | 0.00 | 99 | |
| 20260503055003 | 57 | 262 | 2.0 | 4.0 | 0.00 | 0.00 | 0.00 | 87 | |
| 20260503054003 | 57 | 153 | 1.0 | 4.0 | 0.00 | 0.00 | 0.00 | 85 | |
| 20260503053002 | 59 | 255 | 1.0 | 3.0 | 0.00 | 0.00 | 0.00 | 82 | |
| 20260503051003 | 57 | 269 | 2.0 | 4.0 | 0.00 | 0.00 | 0.00 | 90 | |
| 20260503050003 | 57 | 265 | 2.0 | 4.0 | 0.00 | 0.00 | 0.00 | 91 | |
| 20260503045003 | 56 | 271 | 2.0 | 3.0 | 0.00 | 0.00 | 0.00 | 93 | |
| 20260503044003 | 57 | 281 | 2.0 | 3.0 | 0.00 | 0.00 | 0.00 | 92 | |
| 20260503043003 | 58 | 263 | 2.0 | 3.0 | 0.00 | 0.00 | 0.00 | 89 | |
| 20260503042002 | 59 | 219 | 0.0 | 2.0 | 0.00 | 0.00 | 0.00 | 87 | |
| 20260503041002 | 60 | 235 | 0.0 | 1.0 | 0.00 | 0.00 | 0.00 | 85 | |
| 20260503040003 | 59 | 257 | 0.0 | 3.0 | 0.00 | 0.00 | 0.00 | 86 | |
| 20260503035003 | 59 | 258 | 1.0 | 3.0 | 0.00 | 0.00 | 0.00 | 87 | |
| 20260503034003 | 59 | 241 | 1.0 | 2.0 | 0.00 | 0.00 | 0.00 | 90 | |
| 20260503033003 | 59 | 261 | 2.0 | 4.0 | 0.00 | 0.00 | 0.00 | 91 | |
| 20260503032003 | 59 | 269 | 1.0 | 3.0 | 0.00 | 0.00 | 0.00 | 90 | |
| 20260503031002 | 60 | 257 | 0.0 | 3.0 | 0.00 | 0.00 | 0.00 | 88 | |
| 20260503030003 | 61 | 255 | 1.0 | 5.0 | 0.00 | 0.00 | 0.00 | 87 | |
| 20260503025002 | 62 | 269 | 2.0 | 3.0 | 0.00 | 0.00 | 0.00 | 86 | |
| 20260503024003 | 63 | 258 | 2.0 | 4.0 | 0.00 | 0.00 | 0.00 | 82 | |
| 20260503023003 | 64 | 280 | 1.0 | 4.0 | 0.00 | 0.00 | 0.00 | 82 | |
| 20260503022004 | 65 | 251 | 1.0 | 2.0 | 0.00 | 0.00 | 0.00 | 80 | |
| 20260503021003 | 66 | 244 | 1.0 | 2.0 | 0.00 | 0.00 | 0.00 | 80 | |
| 20260503020004 | 66 | 268 | 0.0 | 3.0 | 0.00 | 0.00 | 0.00 | 77 | |
| 20260503015002 | 67 | 254 | 1.0 | 4.0 | 0.00 | 0.00 | 0.00 | 74 | |
| 20260503014003 | 68 | 255 | 2.0 | 4.0 | 0.00 | 0.00 | 0.00 | 70 | |
| 20260503013003 | 68 | 237 | 1.0 | 3.0 | 0.00 | 0.00 | 0.00 | 70 | |
| 20260503012003 | 68 | 251 | 2.0 | 4.0 | 0.00 | 0.00 | 0.00 | 69 | |
| 20260503011003 | 68 | 253 | 4.0 | 7.0 | 0.00 | 0.00 | 0.00 | 68 | |
| 20260503010004 | 68 | 244 | 3.0 | 8.0 | 0.00 | 0.00 | 0.00 | 66 | |
| 20260503005002 | 69 | 269 | 3.0 | 9.0 | 0.00 | 0.00 | 0.00 | 64 | |
| 20260503004003 | 70 | 259 | 2.0 | 7.0 | 0.00 | 0.00 | 0.00 | 61 | |
| 20260503003003 | 70 | 257 | 3.0 | 6.0 | 0.00 | 0.00 | 0.00 | 59 | |
| 20260503002003 | 71 | 271 | 0.0 | 3.0 | 0.00 | 0.00 | 0.00 | 58 | |
| 20260503001003 | 71 | 213 | 1.0 | 4.0 | 0.00 | 0.00 | 0.00 | 58 | |
| 20260503000003 | 72 | 279 | 1.0 | 3.0 | 0.00 | 0.00 | 0.00 | 50 | |
| 20260502235002 | 72 | 230 | 1.0 | 5.0 | 0.00 | 0.00 | 0.00 | 53 | |
| 20260502234003 | 70 | 108 | 0.0 | 4.0 | 0.00 | 0.00 | 0.00 | 57 | |
| 20260502233003 | 69 | 79 | 2.0 | 4.0 | 0.00 | 0.00 | 0.00 | 58 | |
| 20260502232003 | 69 | 123 | 1.0 | 6.0 | 0.00 | 0.00 | 0.00 | 56 | |
| 20260502231003 | 69 | 84 | 2.0 | 6.0 | 0.00 | 0.00 | 0.00 | 58 | |
| 20260502230004 | 69 | 59 | 3.0 | 6.0 | 0.00 | 0.00 | 0.00 | 59 | |
| 20260502225002 | 70 | 88 | 3.0 | 6.0 | 0.00 | 0.00 | 0.00 | 57 | |
| 20260502224003 | 70 | 116 | 1.0 | 5.0 | 0.00 | 0.00 | 0.00 | 56 | |
| 20260502223003 | 70 | 66 | 3.0 | 8.0 | 0.00 | 0.00 | 0.00 | 53 | |
| 20260502222003 | 70 | 72 | 2.0 | 6.0 | 0.00 | 0.00 | 0.00 | 60 | |
| 20260502221003 | 68 | 80 | 2.0 | 8.0 | 0.00 | 0.00 | 0.00 | 58 | |
| 20260502220004 | 68 | 94 | 2.0 | 8.0 | 0.00 | 0.00 | 0.00 | 58 | |
| 20260502215002 | 68 | 51 | 4.0 | 8.0 | 0.00 | 0.00 | 0.00 | 60 | |
| 20260502214002 | 67 | 74 | 3.0 | 7.0 | 0.00 | 0.00 | 0.00 | 60 | |
| 20260502213003 | 68 | 92 | 2.0 | 8.0 | 0.00 | 0.00 | 0.00 | 59 | |
| 20260502212004 | 68 | 78 | 2.0 | 8.0 | 0.00 | 0.00 | 0.00 | 58 | |
| 20260502211003 | 68 | 86 | 4.0 | 8.0 | 0.00 | 0.00 | 0.00 | 59 | |
| 20260502210004 | 69 | 107 | 3.0 | 12.0 | 0.00 | 0.00 | 0.00 | 56 | |
| 20260502205002 | 66 | 72 | 4.0 | 11.0 | 0.00 | 0.00 | 0.00 | 62 |